Location: Newark
(48.1500°N, 2.9667°W)
Time: 15:37:08
(UTC+00:00)

Transit 2A - Pass Details

Date: 25 January 2020
Orbit: 600 x 959 km, 66.7° (Epoch: 23 February)

Event Time Altitude Azimuth Distance (km) Brightness Sun altitude
Rises 04:47:54 0° 324° (NW) 2,963 - -30.0°
Reaches altitude 10° 04:50:06 10° 323° (NW) 2,088 - -29.7°
Maximum altitude 04:54:49 78° 237° (WSW) 728 - -28.9°
Exits shadow 04:56:45 38° 158° (SSE) 1,099 6.9 -28.6°
Drops below altitude 10° 05:00:01 10° 152° (SSE) 2,293 8.7 -28.0°
Sets 05:02:32 0° 151° (SSE) 3,277 9.6 -27.6°
